Starlink 11640

operational
NORAD ID: 63314 Int'l Des: 2025-057 Owner: SPXS Country: US Constellation: starlink
LEOCIRCULAR

关于 Starlink 11640

正在加载描述...

实时位置

正在加载3D地球...

即将过境

高度历史

Altitude vs Time

uPlot chart will show altitude changes over time

两行轨道根数

1 63314U 25057H 25352.15941440 .00209968 00000-0 15935-2 0 9990
2 63314 43.0006 36.0908 0001831 254.9991 105.0674 15.70919573 44356
Epoch: Dec 18, 2025 • Age: 13 hours

当前状态

高度 359.9 km
速度 7.70 km/s
星下点 42.92°N, 142.15°E
发射日期 Mar 18, 2025
运行时间 0.7 years
类型 internet

技术详情

分类 Payload
质量 960.00 kg
干质量 910.00 kg
总质量 960.00 kg
长度 0.30 m
直径 4.10 m
跨度 29.00 m
形状 Box + pan
制造商 SPXS
平台类型 Starlink V2MD
阶段状态 In Orbit
所有者/国家 SPXS/US

大型星座

Loading constellations...